Time,TemperatureF,DewpointF,PressureIn,WindDirection,WindDirectionDegrees,WindSpeedMPH,WindSpeedGustMPH,Humidity,HourlyPrecipIn,Conditions,Clouds,dailyrainin,SoftwareType,DateUTC
2013-10-17 00:00:00,63.0,59.8,29.99,SW,225,0.0,0.0,89,0.00,,,0.00,WUHU216HW,2013-10-17 04:00:00,
2013-10-17 00:01:00,63.0,59.8,29.99,SW,225,0.0,0.0,89,0.00,,,0.00,WUHU216HW,2013-10-17 04:01:00,
2013-10-17 00:06:00,63.0,59.8,29.99,SW,225,0.0,0.0,89,0.00,,,0.00,WUHU216HW,2013-10-17 04:06:00,
2013-10-17 00:30:00,63.0,59.8,29.98,SW,225,0.0,0.0,89,0.00,,,0.00,WUHU216HW,2013-10-17 04:30:00,
2013-10-17 00:35:00,63.0,59.8,29.98,SW,225,0.0,0.0,89,0.00,,,0.00,WUHU216HW,2013-10-17 04:35:00,
2013-10-17 01:00:00,62.8,59.6,29.98,SW,225,0.0,0.0,89,0.00,,,0.00,WUHU216HW,2013-10-17 05:00:00,
2013-10-17 01:05:00,62.8,59.6,29.98,SW,225,0.0,0.0,89,0.00,,,0.00,WUHU216HW,2013-10-17 05:05:00,
2013-10-17 01:30:00,62.8,59.6,29.98,SW,225,0.0,0.0,89,0.00,,,0.00,WUHU216HW,2013-10-17 05:30:00,
2013-10-17 01:35:00,62.8,59.6,29.98,SW,225,0.0,0.0,89,0.00,,,0.00,WUHU216HW,2013-10-17 05:35:00,
2013-10-17 02:00:00,62.8,59.6,29.98,SW,225,0.0,0.0,89,0.00,,,0.00,WUHU216HW,2013-10-17 06:00:00,
2013-10-17 02:05:00,62.8,59.6,29.98,SW,225,0.0,0.0,89,0.00,,,0.00,WUHU216HW,2013-10-17 06:05:00,
2013-10-17 02:30:00,62.8,59.6,29.97,SW,225,0.0,0.0,89,0.00,,,0.00,WUHU216HW,2013-10-17 06:30:00,
2013-10-17 02:35:00,62.8,59.6,29.97,SW,225,0.0,0.0,89,0.00,,,0.00,WUHU216HW,2013-10-17 06:35:00,
2013-10-17 03:00:00,62.6,59.4,29.96,SW,225,0.0,0.0,89,0.00,,,0.00,WUHU216HW,2013-10-17 07:00:00,
2013-10-17 03:05:00,62.6,59.4,29.96,SW,225,0.0,0.0,89,0.00,,,0.00,WUHU216HW,2013-10-17 07:05:00,
2013-10-17 03:30:00,62.5,59.2,29.95,SW,225,0.4,0.4,89,0.00,,,0.00,WUHU216HW,2013-10-17 07:30:00,
2013-10-17 03:35:00,62.5,59.2,29.95,SW,225,0.4,0.4,89,0.00,,,0.00,WUHU216HW,2013-10-17 07:35:00,
2013-10-17 04:00:00,62.3,59.0,29.95,SW,225,0.0,0.0,89,0.00,,,0.00,WUHU216HW,2013-10-17 08:00:00,
2013-10-17 04:05:00,62.3,59.0,29.95,SW,225,0.0,0.0,89,0.00,,,0.00,WUHU216HW,2013-10-17 08:05:00,
2013-10-17 04:09:00,62.3,59.0,29.95,SW,225,0.0,0.0,89,0.00,,,0.00,WUHU216HW,2013-10-17 08:09:00,
2013-10-17 04:30:00,62.3,59.4,29.95,WSW,248,0.0,0.0,90,0.00,,,0.00,WUHU216HW,2013-10-17 08:30:00,
2013-10-17 04:35:00,62.3,59.4,29.95,WSW,248,0.0,0.0,90,0.00,,,0.00,WUHU216HW,2013-10-17 08:35:00,
2013-10-17 05:00:00,62.3,59.4,29.95,WSW,248,0.0,0.0,90,0.00,,,0.00,WUHU216HW,2013-10-17 09:00:00,
2013-10-17 05:05:00,62.3,59.4,29.95,WSW,248,0.0,0.0,90,0.00,,,0.00,WUHU216HW,2013-10-17 09:05:00,
2013-10-17 05:30:00,62.1,59.2,29.94,WSW,248,0.0,0.0,90,0.00,,,0.00,WUHU216HW,2013-10-17 09:30:00,
2013-10-17 05:35:00,62.1,59.2,29.94,WSW,248,0.0,0.0,90,0.00,,,0.00,WUHU216HW,2013-10-17 09:35:00,
2013-10-17 06:00:00,61.9,59.0,29.95,SW,225,0.0,0.0,90,0.00,,,0.00,WUHU216HW,2013-10-17 10:00:00,
2013-10-17 06:05:00,61.9,59.0,29.95,SW,225,0.0,0.0,90,0.00,,,0.00,WUHU216HW,2013-10-17 10:05:00,
2013-10-17 06:30:00,61.9,59.0,29.95,SW,225,0.0,0.0,90,0.00,,,0.00,WUHU216HW,2013-10-17 10:30:00,
2013-10-17 06:35:00,61.9,59.0,29.95,SW,225,0.0,0.0,90,0.00,,,0.00,WUHU216HW,2013-10-17 10:35:00,
2013-10-17 07:00:00,61.9,59.0,29.95,SSW,203,0.0,0.0,90,0.00,,,0.00,WUHU216HW,2013-10-17 11:00:00,
2013-10-17 07:05:00,61.9,59.0,29.95,SSW,203,0.0,0.0,90,0.00,,,0.00,WUHU216HW,2013-10-17 11:05:00,
2013-10-17 07:30:00,61.9,59.0,29.95,SSW,203,0.0,0.0,90,0.00,,,0.00,WUHU216HW,2013-10-17 11:30:00,
2013-10-17 07:35:00,61.9,59.0,29.95,SSW,203,0.0,0.0,90,0.00,,,0.00,WUHU216HW,2013-10-17 11:35:00,
2013-10-17 08:00:00,61.9,59.0,29.95,SW,225,0.0,0.0,90,0.00,,,0.00,WUHU216HW,2013-10-17 12:00:00,
2013-10-17 08:05:00,61.9,59.0,29.95,SW,225,0.0,0.0,90,0.00,,,0.00,WUHU216HW,2013-10-17 12:05:00,
2013-10-17 08:30:00,61.9,59.0,29.95,SW,225,0.0,0.0,90,0.00,,,0.00,WUHU216HW,2013-10-17 12:30:00,
2013-10-17 08:35:00,61.9,59.0,29.95,SW,225,0.0,0.0,90,0.00,,,0.00,WUHU216HW,2013-10-17 12:35:00,
2013-10-17 09:00:00,62.3,59.7,29.96,SW,225,0.4,0.4,91,0.00,,,0.00,WUHU216HW,2013-10-17 13:00:00,
2013-10-17 09:05:00,62.3,59.7,29.96,SW,225,0.4,0.4,91,0.00,,,0.00,WUHU216HW,2013-10-17 13:05:00,
2013-10-17 09:30:00,63.4,60.8,29.95,SW,225,0.0,0.0,91,0.00,,,0.00,WUHU216HW,2013-10-17 13:30:00,
2013-10-17 09:35:00,63.4,60.8,29.95,SW,225,0.0,0.0,91,0.00,,,0.00,WUHU216HW,2013-10-17 13:35:00,
2013-10-17 10:00:00,64.6,61.8,29.97,SSW,203,0.0,0.0,90,0.00,,,0.00,WUHU216HW,2013-10-17 14:00:00,
2013-10-17 10:05:00,64.6,61.8,29.97,SSW,203,0.0,0.0,90,0.00,,,0.00,WUHU216HW,2013-10-17 14:05:00,
2013-10-17 10:30:00,66.4,63.0,29.96,SW,225,0.0,0.0,89,0.00,,,0.00,WUHU216HW,2013-10-17 14:30:00,
2013-10-17 10:35:00,66.4,63.0,29.96,SW,225,0.0,0.0,89,0.00,,,0.00,WUHU216HW,2013-10-17 14:35:00,
2013-10-17 11:00:00,67.9,63.8,29.96,North,0,0.4,0.4,87,0.00,,,0.00,WUHU216HW,2013-10-17 15:00:00,
2013-10-17 11:05:00,67.9,63.8,29.96,North,0,0.4,0.4,87,0.00,,,0.00,WUHU216HW,2013-10-17 15:05:00,
2013-10-17 11:30:00,68.9,64.5,29.95,SSW,203,0.4,0.4,86,0.00,,,0.00,WUHU216HW,2013-10-17 15:30:00,
2013-10-17 11:35:00,68.9,64.5,29.95,SSW,203,0.4,0.4,86,0.00,,,0.00,WUHU216HW,2013-10-17 15:35:00,
2013-10-17 12:00:00,70.2,65.1,29.94,ESE,113,0.4,0.4,84,0.00,,,0.00,WUHU216HW,2013-10-17 16:00:00,
2013-10-17 12:05:00,70.2,65.1,29.94,ESE,113,0.4,0.4,84,0.00,,,0.00,WUHU216HW,2013-10-17 16:05:00,
2013-10-17 12:30:00,70.9,65.2,29.93,North,0,0.7,0.7,82,0.00,,,0.00,WUHU216HW,2013-10-17 16:30:00,
2013-10-17 12:35:00,70.9,65.2,29.93,North,0,0.7,0.7,82,0.00,,,0.00,WUHU216HW,2013-10-17 16:35:00,
2013-10-17 13:00:00,71.6,64.0,29.93,NW,315,0.2,0.2,77,0.00,,,0.00,WUHU216HW,2013-10-17 17:00:00,
2013-10-17 13:05:00,71.6,64.0,29.93,NW,315,0.2,0.2,77,0.00,,,0.00,WUHU216HW,2013-10-17 17:05:00,
2013-10-17 13:30:00,71.6,64.5,29.92,NW,315,0.0,0.0,78,0.00,,,0.00,WUHU216HW,2013-10-17 17:30:00,
2013-10-17 13:35:00,71.6,64.5,29.92,NW,315,0.0,0.0,78,0.00,,,0.00,WUHU216HW,2013-10-17 17:35:00,
2013-10-17 14:00:00,72.0,64.4,29.90,East,90,1.3,1.3,77,0.00,,,0.00,WUHU216HW,2013-10-17 18:00:00,
2013-10-17 14:05:00,72.0,64.4,29.90,East,90,1.3,1.3,77,0.00,,,0.00,WUHU216HW,2013-10-17 18:05:00,
2013-10-17 14:30:00,71.6,64.5,29.89,North,0,0.0,0.0,78,0.00,,,0.00,WUHU216HW,2013-10-17 18:30:00,
2013-10-17 14:35:00,71.6,64.5,29.89,North,0,0.0,0.0,78,0.00,,,0.00,WUHU216HW,2013-10-17 18:35:00,
2013-10-17 15:00:00,71.5,64.6,29.89,WSW,248,0.0,0.0,79,0.00,,,0.00,WUHU216HW,2013-10-17 19:00:00,
2013-10-17 15:05:00,71.5,64.6,29.89,WSW,248,0.0,0.0,79,0.00,,,0.00,WUHU216HW,2013-10-17 19:05:00,
2013-10-17 15:30:00,71.3,64.5,29.88,NNE,23,0.0,0.0,79,0.00,,,0.00,WUHU216HW,2013-10-17 19:30:00,
2013-10-17 15:31:00,71.3,64.5,29.88,NNE,23,0.0,0.0,79,0.00,,,0.00,WUHU216HW,2013-10-17 19:31:00,
2013-10-17 15:36:00,71.3,64.5,29.88,NNE,23,0.0,0.0,79,0.00,,,0.00,WUHU216HW,2013-10-17 19:36:00,
2013-10-17 16:00:00,71.3,64.8,29.88,East,90,0.0,0.0,80,0.00,,,0.00,WUHU216HW,2013-10-17 20:00:00,
2013-10-17 16:05:00,71.3,64.8,29.88,East,90,0.0,0.0,80,0.00,,,0.00,WUHU216HW,2013-10-17 20:05:00,
2013-10-17 16:30:00,70.7,64.6,29.87,SSW,203,0.0,0.0,81,0.00,,,0.00,WUHU216HW,2013-10-17 20:30:00,
2013-10-17 16:35:00,70.7,64.6,29.87,SSW,203,0.0,0.0,81,0.00,,,0.00,WUHU216HW,2013-10-17 20:35:00,
2013-10-17 17:00:00,70.6,64.8,29.87,SSE,158,0.0,0.0,82,0.00,,,0.00,WUHU216HW,2013-10-17 21:00:00,
2013-10-17 17:05:00,70.6,64.8,29.87,SSE,158,0.0,0.0,82,0.00,,,0.00,WUHU216HW,2013-10-17 21:05:00,
2013-10-17 17:30:00,70.4,64.9,29.86,SE,135,0.0,0.0,83,0.00,,,0.00,WUHU216HW,2013-10-17 21:30:00,
2013-10-17 17:35:00,70.4,64.9,29.86,SE,135,0.0,0.0,83,0.00,,,0.00,WUHU216HW,2013-10-17 21:35:00,
2013-10-17 18:00:00,70.0,64.3,29.86,West,270,0.0,0.0,82,0.00,,,0.00,WUHU216HW,2013-10-17 22:00:00,
2013-10-17 18:05:00,70.0,64.3,29.86,West,270,0.0,0.0,82,0.00,,,0.00,WUHU216HW,2013-10-17 22:05:00,
2013-10-17 18:30:00,69.8,64.4,29.86,WSW,248,0.0,0.0,83,0.00,,,0.00,WUHU216HW,2013-10-17 22:30:00,
2013-10-17 18:35:00,69.8,64.4,29.86,WSW,248,0.0,0.0,83,0.00,,,0.00,WUHU216HW,2013-10-17 22:35:00,
2013-10-17 19:00:00,69.1,64.1,29.86,West,270,0.4,0.4,84,0.00,,,0.00,WUHU216HW,2013-10-17 23:00:00,
2013-10-17 19:05:00,69.1,64.1,29.86,West,270,0.4,0.4,84,0.00,,,0.00,WUHU216HW,2013-10-17 23:05:00,
2013-10-17 19:30:00,68.8,64.4,29.86,SW,225,0.0,0.0,86,0.00,,,0.00,WUHU216HW,2013-10-17 23:30:00,
2013-10-17 19:35:00,68.8,64.4,29.86,SW,225,0.0,0.0,86,0.00,,,0.00,WUHU216HW,2013-10-17 23:35:00,
2013-10-17 20:00:00,68.2,64.2,29.86,East,90,0.0,0.0,87,0.00,,,0.00,WUHU216HW,2013-10-18 00:00:00,
2013-10-17 20:05:00,68.2,64.2,29.86,East,90,0.0,0.0,87,0.00,,,0.00,WUHU216HW,2013-10-18 00:05:00,
2013-10-17 20:30:00,67.9,64.2,29.88,NW,315,0.0,0.0,88,0.00,,,0.00,WUHU216HW,2013-10-18 00:30:00,
2013-10-17 20:35:00,67.9,64.2,29.88,NW,315,0.0,0.0,88,0.00,,,0.00,WUHU216HW,2013-10-18 00:35:00,
2013-10-17 21:00:00,67.7,64.0,29.88,WSW,248,0.4,0.4,88,0.00,,,0.00,WUHU216HW,2013-10-18 01:00:00,
2013-10-17 21:05:00,67.7,64.0,29.88,WSW,248,0.4,0.4,88,0.00,,,0.00,WUHU216HW,2013-10-18 01:05:00,
2013-10-17 21:30:00,67.5,63.8,29.89,WSW,248,0.0,0.0,88,0.00,,,0.00,WUHU216HW,2013-10-18 01:30:00,
2013-10-17 21:35:00,67.5,63.8,29.89,WSW,248,0.0,0.0,88,0.00,,,0.00,WUHU216HW,2013-10-18 01:35:00,
2013-10-17 22:00:00,67.5,63.8,29.89,WSW,248,0.0,0.0,88,0.00,,,0.00,WUHU216HW,2013-10-18 02:00:00,
2013-10-17 22:05:00,67.5,63.8,29.89,WSW,248,0.0,0.0,88,0.00,,,0.00,WUHU216HW,2013-10-18 02:05:00,
2013-10-17 22:30:00,67.5,63.8,29.89,WNW,293,0.2,0.2,88,0.00,,,0.00,WUHU216HW,2013-10-18 02:30:00,
2013-10-17 22:35:00,67.5,63.8,29.89,WNW,293,0.2,0.2,88,0.00,,,0.00,WUHU216HW,2013-10-18 02:35:00,
2013-10-17 23:00:00,67.5,63.8,29.90,WSW,248,0.0,0.0,88,0.00,,,0.00,WUHU216HW,2013-10-18 03:00:00,
2013-10-17 23:05:00,67.5,63.8,29.90,WSW,248,0.0,0.0,88,0.00,,,0.00,WUHU216HW,2013-10-18 03:05:00,
2013-10-17 23:30:00,67.3,63.9,29.90,WNW,293,0.0,0.0,89,0.00,,,0.00,WUHU216HW,2013-10-18 03:30:00,
2013-10-17 23:35:00,67.3,63.9,29.90,WNW,293,0.0,0.0,89,0.00,,,0.00,WUHU216HW,2013-10-18 03:35:00,